owner,sensor,date,latitude,longitude,vertical_datum,wind_speed,wind_to_direction,wind_speed_of_gust,qcFlag 
TCOON,ioos:station:TCOON:006:1,2008-10-01T00:00:00Z,27.8217,-97.2040,0.0,3.1,172.0,3.8,'11111222,11111222,11111222' 
TCOON,ioos:station:TCOON:006:1,2008-10-01T02:00:00Z,27.8217,-97.2040,0.0,3.9,232.0,4.7,'11111222,11111222,11111222' 
TCOON,ioos:station:TCOON:006:1,2008-10-01T03:00:00Z,27.8217,-97.2040,0.0,4.5,217.0,5.9,'11111222,11111222,11111222' 
TCOON,ioos:station:TCOON:006:1,2008-10-01T04:00:00Z,27.8217,-97.2040,0.0,3.3,220.0,4.1,'11111222,11111222,11111222' 
TCOON,ioos:station:TCOON:006:1,2008-10-01T05:00:00Z,27.8217,-97.2040,0.0,3.3,231.0,3.6,'11111222,11111222,11111222' 
TCOON,ioos:station:TCOON:006:1,2008-10-01T06:00:00Z,27.8217,-97.2040,0.0,3.1,262.0,4.7,'11111222,11111222,11111222' 
TCOON,ioos:station:TCOON:006:1,2008-10-01T07:00:00Z,27.8217,-97.2040,0.0,0.8,8.0,2.5,'11111222,11111222,11111222' 
TCOON,ioos:station:TCOON:006:1,2008-10-01T08:00:00Z,27.8217,-97.2040,0.0,2.8,341.0,3.8,'11111222,11111222,11111222' 
TCOON,ioos:station:TCOON:006:1,2008-10-01T09:00:00Z,27.8217,-97.2040,0.0,1.6,345.0,2.5,'11111222,11111222,11111222' 
TCOON,ioos:station:TCOON:006:1,2008-10-01T10:00:00Z,27.8217,-97.2040,0.0,1.0,131.0,1.3,'11111222,11111222,11111222' 
TCOON,ioos:station:TCOON:006:1,2008-10-01T11:00:00Z,27.8217,-97.2040,0.0,0.1,111.0,0.3,'11111222,11111222,11111222' 
TCOON,ioos:station:TCOON:006:1,2008-10-01T12:00:00Z,27.8217,-97.2040,0.0,1.0,8.0,1.9,'11111222,11111222,11111222' 
TCOON,ioos:station:TCOON:006:1,2008-10-01T13:00:00Z,27.8217,-97.2040,0.0,1.5,44.0,2.4,'11111222,11111222,11111222' 
TCOON,ioos:station:TCOON:006:1,2008-10-01T14:00:00Z,27.8217,-97.2040,0.0,3.4,37.0,6.0,'11111222,11111222,11111222' 
TCOON,ioos:station:TCOON:006:1,2008-10-01T15:00:00Z,27.8217,-97.2040,0.0,3.0,41.0,4.3,'11111222,11111222,11111222' 
TCOON,ioos:station:TCOON:006:1,2008-10-01T16:00:00Z,27.8217,-97.2040,0.0,2.6,46.0,4.6,'11111222,11111222,11111222' 
TCOON,ioos:station:TCOON:006:1,2008-10-01T17:00:00Z,27.8217,-97.2040,0.0,2.9,46.0,4.4,'11111222,11111222,11111222' 
TCOON,ioos:station:TCOON:006:1,2008-10-01T18:00:00Z,27.8217,-97.2040,0.0,2.8,87.0,4.2,'11111222,11111222,11111222' 
TCOON,ioos:station:TCOON:006:1,2008-10-01T19:00:00Z,27.8217,-97.2040,0.0,3.2,77.0,5.2,'11111222,11111222,11111222' 
TCOON,ioos:station:TCOON:006:1,2008-10-01T20:00:00Z,27.8217,-97.2040,0.0,2.7,81.0,4.5,'11111222,11111222,11111222' 
TCOON,ioos:station:TCOON:006:1,2008-10-01T21:00:00Z,27.8217,-97.2040,0.0,3.0,95.0,5.6,'11111222,11111222,11111222' 
TCOON,ioos:station:TCOON:006:1,2008-10-01T22:00:00Z,27.8217,-97.2040,0.0,3.3,108.0,4.9,'11111222,11111222,11111222' 
TCOON,ioos:station:TCOON:006:1,2008-10-01T23:00:00Z,27.8217,-97.2040,0.0,2.5,101.0,4.8,'11111222,11111222,11111222' 
TCOON,ioos:station:TCOON:006:1,2008-10-02T00:00:00Z,27.8217,-97.2040,0.0,3.1,108.0,4.6,'11111222,11111222,11111222' 
TCOON,ioos:station:TCOON:006:1,2008-10-02T01:00:00Z,27.8217,-97.2040,0.0,2.9,117.0,4.1,'11111222,11111222,11111222' 
TCOON,ioos:station:TCOON:006:1,2008-10-02T02:00:00Z,27.8217,-97.2040,0.0,1.7,112.0,2.5,'11111222,11111222,11111222' 
TCOON,ioos:station:TCOON:006:1,2008-10-02T03:00:00Z,27.8217,-97.2040,0.0,1.5,110.0,2.4,'11111222,11111222,11111222' 
TCOON,ioos:station:TCOON:006:1,2008-10-02T04:00:00Z,27.8217,-97.2040,0.0,1.0,89.0,1.9,'11111222,11111222,11111222' 
TCOON,ioos:station:TCOON:006:1,2008-10-02T05:00:00Z,27.8217,-97.2040,0.0,2.5,85.0,3.6,'11111222,11111222,11111222' 
TCOON,ioos:station:TCOON:006:1,2008-10-02T06:00:00Z,27.8217,-97.2040,0.0,2.0,72.0,3.5,'11111222,11111222,11111222' 
TCOON,ioos:station:TCOON:006:1,2008-10-02T07:00:00Z,27.8217,-97.2040,0.0,2.7,89.0,3.6,'11111222,11111222,11111222' 
TCOON,ioos:station:TCOON:006:1,2008-10-02T08:00:00Z,27.8217,-97.2040,0.0,2.7,109.0,4.2,'11111222,11111222,11111222' 
TCOON,ioos:station:TCOON:006:1,2008-10-02T09:00:00Z,27.8217,-97.2040,0.0,1.5,88.0,2.2,'11111222,11111222,11111222' 
TCOON,ioos:station:TCOON:006:1,2008-10-02T10:00:00Z,27.8217,-97.2040,0.0,0.8,64.0,1.4,'11111222,11111222,11111222' 
TCOON,ioos:station:TCOON:006:1,2008-10-02T11:00:00Z,27.8217,-97.2040,0.0,0.8,36.0,1.5,'11111222,11111222,11111222' 
TCOON,ioos:station:TCOON:006:1,2008-10-02T12:00:00Z,27.8217,-97.2040,0.0,0.9,32.0,1.4,'11111222,11111222,11111222' 
TCOON,ioos:station:TCOON:006:1,2008-10-02T13:00:00Z,27.8217,-97.2040,0.0,2.5,82.0,3.2,'11111222,11111222,11111222' 
TCOON,ioos:station:TCOON:006:1,2008-10-02T14:00:00Z,27.8217,-97.2040,0.0,2.5,90.0,3.2,'11111222,11111222,11111222' 
TCOON,ioos:station:TCOON:006:1,2008-10-02T15:00:00Z,27.8217,-97.2040,0.0,3.1,113.0,3.8,'11111222,11111222,11111222' 
TCOON,ioos:station:TCOON:006:1,2008-10-02T16:00:00Z,27.8217,-97.2040,0.0,2.5,92.0,3.7,'11111222,11111222,11111222' 
TCOON,ioos:station:TCOON:006:1,2008-10-02T17:00:00Z,27.8217,-97.2040,0.0,2.6,107.0,3.7,'11111222,11111222,11111222' 
TCOON,ioos:station:TCOON:006:1,2008-10-02T18:00:00Z,27.8217,-97.2040,0.0,3.2,106.0,4.2,'11111222,11111222,11111222' 
TCOON,ioos:station:TCOON:006:1,2008-10-02T19:00:00Z,27.8217,-97.2040,0.0,2.4,101.0,4.6,'11111222,11111222,11111222' 
TCOON,ioos:station:TCOON:006:1,2008-10-02T20:00:00Z,27.8217,-97.2040,0.0,3.3,106.0,5.9,'11111222,11111222,11111222' 
TCOON,ioos:station:TCOON:006:1,2008-10-02T21:00:00Z,27.8217,-97.2040,0.0,3.8,97.0,6.2,'11111222,11111222,11111222' 
TCOON,ioos:station:TCOON:006:1,2008-10-02T22:00:00Z,27.8217,-97.2040,0.0,4.0,106.0,5.4,'11111222,11111222,11111222' 
TCOON,ioos:station:TCOON:006:1,2008-10-02T23:00:00Z,27.8217,-97.2040,0.0,3.7,136.0,5.4,'11111222,11111222,11111222' 
TCOON,ioos:station:TCOON:006:1,2008-10-03T00:00:00Z,27.8217,-97.2040,0.0,3.1,120.0,5.0,'11111222,11111222,11111222' 
TCOON,ioos:station:TCOON:006:1,2008-10-03T01:00:00Z,27.8217,-97.2040,0.0,3.7,127.0,5.2,'11111222,11111222,11111222' 
TCOON,ioos:station:TCOON:006:1,2008-10-03T02:00:00Z,27.8217,-97.2040,0.0,3.4,130.0,4.9,'11111222,11111222,11111222' 
TCOON,ioos:station:TCOON:006:1,2008-10-03T03:00:00Z,27.8217,-97.2040,0.0,3.4,133.0,4.8,'11111222,11111222,11111222' 
TCOON,ioos:station:TCOON:006:1,2008-10-03T04:00:00Z,27.8217,-97.2040,0.0,3.1,127.0,4.8,'11111222,11111222,11111222' 
TCOON,ioos:station:TCOON:006:1,2008-10-03T05:00:00Z,27.8217,-97.2040,0.0,4.5,143.0,5.6,'11111222,11111222,11111222' 
TCOON,ioos:station:TCOON:006:1,2008-10-03T06:00:00Z,27.8217,-97.2040,0.0,4.8,153.0,6.0,'11111222,11111222,11111222' 
TCOON,ioos:station:TCOON:006:1,2008-10-03T07:00:00Z,27.8217,-97.2040,0.0,5.2,143.0,6.9,'11111222,11111222,11111222' 
TCOON,ioos:station:TCOON:006:1,2008-10-03T08:00:00Z,27.8217,-97.2040,0.0,5.1,144.0,6.3,'11111222,11111222,11111222' 
TCOON,ioos:station:TCOON:006:1,2008-10-03T09:00:00Z,27.8217,-97.2040,0.0,4.4,150.0,6.6,'11111222,11111222,11111222' 
TCOON,ioos:station:TCOON:006:1,2008-10-03T10:00:00Z,27.8217,-97.2040,0.0,5.2,150.0,6.6,'11111222,11111222,11111222' 
TCOON,ioos:station:TCOON:006:1,2008-10-03T11:00:00Z,27.8217,-97.2040,0.0,4.8,152.0,6.0,'11111222,11111222,11111222' 
TCOON,ioos:station:TCOON:006:1,2008-10-03T12:00:00Z,27.8217,-97.2040,0.0,5.1,151.0,6.9,'11111222,11111222,11111222' 
TCOON,ioos:station:TCOON:006:1,2008-10-03T13:00:00Z,27.8217,-97.2040,0.0,5.0,158.0,6.3,'11111222,11111222,11111222' 
TCOON,ioos:station:TCOON:006:1,2008-10-03T14:00:00Z,27.8217,-97.2040,0.0,5.2,163.0,6.2,'11111222,11111222,11111222' 
TCOON,ioos:station:TCOON:006:1,2008-10-03T15:00:00Z,27.8217,-97.2040,0.0,4.8,147.0,6.3,'11111222,11111222,11111222' 
TCOON,ioos:station:TCOON:006:1,2008-10-03T16:00:00Z,27.8217,-97.2040,0.0,5.3,147.0,6.1,'11111222,11111222,11111222' 
TCOON,ioos:station:TCOON:006:1,2008-10-03T17:00:00Z,27.8217,-97.2040,0.0,5.4,147.0,7.4,'11111222,11111222,11111222' 
TCOON,ioos:station:TCOON:006:1,2008-10-03T18:00:00Z,27.8217,-97.2040,0.0,3.9,142.0,6.5,'11111222,11111222,11111222' 
TCOON,ioos:station:TCOON:006:1,2008-10-03T19:00:00Z,27.8217,-97.2040,0.0,5.3,140.0,7.2,'11111222,11111222,11111222' 
TCOON,ioos:station:TCOON:006:1,2008-10-03T20:00:00Z,27.8217,-97.2040,0.0,5.0,133.0,7.1,'11111222,11111222,11111222' 
TCOON,ioos:station:TCOON:006:1,2008-10-03T21:00:00Z,27.8217,-97.2040,0.0,5.0,142.0,7.3,'11111222,11111222,11111222' 
TCOON,ioos:station:TCOON:006:1,2008-10-03T22:00:00Z,27.8217,-97.2040,0.0,4.8,132.0,5.6,'11111222,11111222,11111222' 
TCOON,ioos:station:TCOON:006:1,2008-10-03T23:00:00Z,27.8217,-97.2040,0.0,4.3,137.0,5.7,'11111222,11111222,11111222' 
TCOON,ioos:station:TCOON:006:1,2008-10-04T00:00:00Z,27.8217,-97.2040,0.0,4.3,140.0,6.3,'11111222,11111222,11111222' 
TCOON,ioos:station:TCOON:006:1,2008-10-04T01:00:00Z,27.8217,-97.2040,0.0,6.0,143.0,7.0,'11111222,11111222,11111222' 
TCOON,ioos:station:TCOON:006:1,2008-10-04T02:00:00Z,27.8217,-97.2040,0.0,4.8,148.0,7.2,'11111222,11111222,11111222' 
TCOON,ioos:station:TCOON:006:1,2008-10-04T03:00:00Z,27.8217,-97.2040,0.0,4.8,147.0,6.0,'11111222,11111222,11111222' 
TCOON,ioos:station:TCOON:006:1,2008-10-04T04:00:00Z,27.8217,-97.2040,0.0,5.6,150.0,7.8,'11111222,11111222,11111222' 
TCOON,ioos:station:TCOON:006:1,2008-10-04T05:00:00Z,27.8217,-97.2040,0.0,5.6,141.0,7.6,'11111222,11111222,11111222' 
TCOON,ioos:station:TCOON:006:1,2008-10-04T06:00:00Z,27.8217,-97.2040,0.0,4.9,137.0,6.7,'11111222,11111222,11111222' 
TCOON,ioos:station:TCOON:006:1,2008-10-04T07:00:00Z,27.8217,-97.2040,0.0,4.4,135.0,6.1,'11111222,11111222,11111222' 
TCOON,ioos:station:TCOON:006:1,2008-10-04T08:00:00Z,27.8217,-97.2040,0.0,5.7,124.0,7.1,'11111222,11111222,11111222' 
TCOON,ioos:station:TCOON:006:1,2008-10-04T09:00:00Z,27.8217,-97.2040,0.0,5.2,126.0,7.2,'11111222,11111222,11111222' 
TCOON,ioos:station:TCOON:006:1,2008-10-04T10:00:00Z,27.8217,-97.2040,0.0,5.4,126.0,7.7,'11111222,11111222,11111222' 
TCOON,ioos:station:TCOON:006:1,2008-10-04T11:00:00Z,27.8217,-97.2040,0.0,3.9,127.0,6.2,'11111222,11111222,11111222' 
TCOON,ioos:station:TCOON:006:1,2008-10-04T12:00:00Z,27.8217,-97.2040,0.0,4.0,118.0,5.8,'11111222,11111222,11111222' 
TCOON,ioos:station:TCOON:006:1,2008-10-04T13:00:00Z,27.8217,-97.2040,0.0,3.2,108.0,5.4,'11111222,11111222,11111222' 
TCOON,ioos:station:TCOON:006:1,2008-10-04T14:00:00Z,27.8217,-97.2040,0.0,4.1,120.0,5.1,'11111222,11111222,11111222' 
TCOON,ioos:station:TCOON:006:1,2008-10-04T15:00:00Z,27.8217,-97.2040,0.0,4.7,135.0,6.9,'11111222,11111222,11111222' 
TCOON,ioos:station:TCOON:006:1,2008-10-04T16:00:00Z,27.8217,-97.2040,0.0,4.5,113.0,6.2,'11111222,11111222,11111222' 
TCOON,ioos:station:TCOON:006:1,2008-10-04T17:00:00Z,27.8217,-97.2040,0.0,5.3,117.0,7.4,'11111222,11111222,11111222' 
TCOON,ioos:station:TCOON:006:1,2008-10-04T18:00:00Z,27.8217,-97.2040,0.0,5.4,134.0,6.6,'11111222,11111222,11111222' 
TCOON,ioos:station:TCOON:006:1,2008-10-04T19:00:00Z,27.8217,-97.2040,0.0,3.2,170.0,4.6,'11111222,11111222,11111222' 
TCOON,ioos:station:TCOON:006:1,2008-10-04T20:00:00Z,27.8217,-97.2040,0.0,4.3,71.0,8.9,'11111222,11111222,11111222' 
TCOON,ioos:station:TCOON:006:1,2008-10-04T21:00:00Z,27.8217,-97.2040,0.0,4.8,97.0,7.6,'11111222,11111222,11111222' 
TCOON,ioos:station:TCOON:006:1,2008-10-04T22:00:00Z,27.8217,-97.2040,0.0,4.7,98.0,6.9,'11111222,11111222,11111222' 
TCOON,ioos:station:TCOON:006:1,2008-10-04T23:00:00Z,27.8217,-97.2040,0.0,6.6,110.0,8.6,'11111222,11111222,11111222' 
TCOON,ioos:station:TCOON:006:1,2008-10-05T00:00:00Z,27.8217,-97.2040,0.0,5.0,103.0,7.6,'11111222,11111222,11111222' 
TCOON,ioos:station:TCOON:006:1,2008-10-05T01:00:00Z,27.8217,-97.2040,0.0,5.4,106.0,7.5,'11111222,11111222,11111222' 
TCOON,ioos:station:TCOON:006:1,2008-10-05T02:00:00Z,27.8217,-97.2040,0.0,6.5,105.0,8.1,'11111222,11111222,11111222' 
TCOON,ioos:station:TCOON:006:1,2008-10-05T03:00:00Z,27.8217,-97.2040,0.0,6.3,111.0,7.7,'11111222,11111222,11111222' 
TCOON,ioos:station:TCOON:006:1,2008-10-05T04:00:00Z,27.8217,-97.2040,0.0,5.9,110.0,9.0,'11111222,11111222,11111222' 
TCOON,ioos:station:TCOON:006:1,2008-10-05T05:00:00Z,27.8217,-97.2040,0.0,4.9,110.0,7.5,'11111222,11111222,11111222' 
TCOON,ioos:station:TCOON:006:1,2008-10-05T06:00:00Z,27.8217,-97.2040,0.0,5.6,112.0,7.6,'11111222,11111222,11111222' 
TCOON,ioos:station:TCOON:006:1,2008-10-05T07:00:00Z,27.8217,-97.2040,0.0,6.8,113.0,7.9,'11111222,11111222,11111222' 
TCOON,ioos:station:TCOON:006:1,2008-10-05T08:00:00Z,27.8217,-97.2040,0.0,6.1,129.0,8.6,'11111222,11111222,11111222' 
TCOON,ioos:station:TCOON:006:1,2008-10-05T09:00:00Z,27.8217,-97.2040,0.0,6.4,125.0,9.0,'11111222,11111222,11111222' 
TCOON,ioos:station:TCOON:006:1,2008-10-05T10:00:00Z,27.8217,-97.2040,0.0,4.7,145.0,5.8,'11111222,11111222,11111222' 
TCOON,ioos:station:TCOON:006:1,2008-10-05T11:00:00Z,27.8217,-97.2040,0.0,4.2,141.0,6.7,'11111222,11111222,11111222' 
TCOON,ioos:station:TCOON:006:1,2008-10-05T12:00:00Z,27.8217,-97.2040,0.0,3.5,128.0,4.7,'11111222,11111222,11111222' 
TCOON,ioos:station:TCOON:006:1,2008-10-05T13:00:00Z,27.8217,-97.2040,0.0,5.4,137.0,7.9,'11111222,11111222,11111222' 
TCOON,ioos:station:TCOON:006:1,2008-10-05T14:00:00Z,27.8217,-97.2040,0.0,6.6,124.0,8.6,'11111222,11111222,11111222' 
TCOON,ioos:station:TCOON:006:1,2008-10-05T15:00:00Z,27.8217,-97.2040,0.0,6.6,134.0,8.8,'11111222,11111222,11111222' 
TCOON,ioos:station:TCOON:006:1,2008-10-05T16:00:00Z,27.8217,-97.2040,0.0,6.1,127.0,8.5,'11111222,11111222,11111222' 
TCOON,ioos:station:TCOON:006:1,2008-10-05T17:00:00Z,27.8217,-97.2040,0.0,3.7,122.0,7.5,'11111222,11111222,11111222' 
TCOON,ioos:station:TCOON:006:1,2008-10-05T18:00:00Z,27.8217,-97.2040,0.0,4.5,122.0,7.4,'11111222,11111222,11111222' 
TCOON,ioos:station:TCOON:006:1,2008-10-05T19:00:00Z,27.8217,-97.2040,0.0,5.3,122.0,7.1,'11111222,11111222,11111222' 
TCOON,ioos:station:TCOON:006:1,2008-10-05T20:00:00Z,27.8217,-97.2040,0.0,5.3,109.0,8.1,'11111222,11111222,11111222' 
TCOON,ioos:station:TCOON:006:1,2008-10-05T21:00:00Z,27.8217,-97.2040,0.0,5.9,102.0,9.4,'11111222,11111222,11111222' 
TCOON,ioos:station:TCOON:006:1,2008-10-05T22:00:00Z,27.8217,-97.2040,0.0,5.1,98.0,8.8,'11111222,11111222,11111222' 
TCOON,ioos:station:TCOON:006:1,2008-10-05T23:00:00Z,27.8217,-97.2040,0.0,5.2,106.0,9.4,'11111222,11111222,11111222' 
TCOON,ioos:station:TCOON:006:1,2008-10-06T00:00:00Z,27.8217,-97.2040,0.0,4.2,104.0,7.7,'11111222,11111222,11111222' 
TCOON,ioos:station:TCOON:006:1,2008-10-06T01:00:00Z,27.8217,-97.2040,0.0,4.3,117.0,8.5,'11111222,11111222,11111222' 
TCOON,ioos:station:TCOON:006:1,2008-10-06T02:00:00Z,27.8217,-97.2040,0.0,5.5,115.0,8.3,'11111222,11111222,11111222' 
TCOON,ioos:station:TCOON:006:1,2008-10-06T03:00:00Z,27.8217,-97.2040,0.0,4.7,114.0,7.7,'11111222,11111222,11111222' 
TCOON,ioos:station:TCOON:006:1,2008-10-06T04:00:00Z,27.8217,-97.2040,0.0,4.9,122.0,7.7,'11111222,11111222,11111222' 
TCOON,ioos:station:TCOON:006:1,2008-10-06T05:00:00Z,27.8217,-97.2040,0.0,4.9,119.0,9.2,'11111222,11111222,11111222' 
TCOON,ioos:station:TCOON:006:1,2008-10-06T06:00:00Z,27.8217,-97.2040,0.0,5.4,133.0,7.5,'11111222,11111222,11111222' 
TCOON,ioos:station:TCOON:006:1,2008-10-06T07:00:00Z,27.8217,-97.2040,0.0,4.6,137.0,6.7,'11111222,11111222,11111222' 
TCOON,ioos:station:TCOON:006:1,2008-10-06T08:00:00Z,27.8217,-97.2040,0.0,5.0,140.0,6.8,'11111222,11111222,11111222' 
TCOON,ioos:station:TCOON:006:1,2008-10-06T09:00:00Z,27.8217,-97.2040,0.0,5.6,148.0,7.9,'11111222,11111222,11111222' 
TCOON,ioos:station:TCOON:006:1,2008-10-06T10:00:00Z,27.8217,-97.2040,0.0,7.1,145.0,9.9,'11111222,11111222,11111222' 
TCOON,ioos:station:TCOON:006:1,2008-10-06T11:00:00Z,27.8217,-97.2040,0.0,6.9,145.0,8.5,'11111222,11111222,11111222' 
TCOON,ioos:station:TCOON:006:1,2008-10-06T12:00:00Z,27.8217,-97.2040,0.0,6.8,149.0,9.1,'11111222,11111222,11111222' 
TCOON,ioos:station:TCOON:006:1,2008-10-06T13:00:00Z,27.8217,-97.2040,0.0,5.2,147.0,6.9,'11111222,11111222,11111222' 
TCOON,ioos:station:TCOON:006:1,2008-10-06T14:00:00Z,27.8217,-97.2040,0.0,4.5,164.0,6.0,'11111222,11111222,11111222' 
TCOON,ioos:station:TCOON:006:1,2008-10-06T15:00:00Z,27.8217,-97.2040,0.0,6.4,156.0,7.6,'11111222,11111222,11111222' 
TCOON,ioos:station:TCOON:006:1,2008-10-06T16:00:00Z,27.8217,-97.2040,0.0,5.3,144.0,7.6,'11111222,11111222,11111222' 
TCOON,ioos:station:TCOON:006:1,2008-10-06T17:00:00Z,27.8217,-97.2040,0.0,6.1,145.0,7.1,'11111222,11111222,11111222' 
TCOON,ioos:station:TCOON:006:1,2008-10-06T18:00:00Z,27.8217,-97.2040,0.0,5.0,137.0,6.9,'11111222,11111222,11111222' 
TCOON,ioos:station:TCOON:006:1,2008-10-06T19:00:00Z,27.8217,-97.2040,0.0,5.0,135.0,7.6,'11111222,11111222,11111222' 
TCOON,ioos:station:TCOON:006:1,2008-10-06T20:00:00Z,27.8217,-97.2040,0.0,6.2,132.0,8.2,'11111222,11111222,11111222' 
TCOON,ioos:station:TCOON:006:1,2008-10-06T21:00:00Z,27.8217,-97.2040,0.0,6.7,126.0,8.8,'11111222,11111222,11111222' 
TCOON,ioos:station:TCOON:006:1,2008-10-06T22:00:00Z,27.8217,-97.2040,0.0,7.6,124.0,9.0,'11111222,11111222,11111222' 
TCOON,ioos:station:TCOON:006:1,2008-10-06T23:00:00Z,27.8217,-97.2040,0.0,6.4,128.0,8.5,'11111222,11111222,11111222' 
TCOON,ioos:station:TCOON:006:1,2008-10-07T00:00:00Z,27.8217,-97.2040,0.0,6.1,125.0,8.0,'11111222,11111222,11111222' 
TCOON,ioos:station:TCOON:006:1,2008-10-07T01:00:00Z,27.8217,-97.2040,0.0,5.2,128.0,8.3,'11111222,11111222,11111222' 
TCOON,ioos:station:TCOON:006:1,2008-10-07T02:00:00Z,27.8217,-97.2040,0.0,5.2,133.0,6.9,'11111222,11111222,11111222' 
TCOON,ioos:station:TCOON:006:1,2008-10-07T03:00:00Z,27.8217,-97.2040,0.0,3.6,141.0,5.3,'11111222,11111222,11111222' 
TCOON,ioos:station:TCOON:006:1,2008-10-07T04:00:00Z,27.8217,-97.2040,0.0,2.7,137.0,3.8,'11111222,11111222,11111222' 
TCOON,ioos:station:TCOON:006:1,2008-10-07T05:00:00Z,27.8217,-97.2040,0.0,3.4,132.0,4.4,'11111222,11111222,11111222' 
TCOON,ioos:station:TCOON:006:1,2008-10-07T06:00:00Z,27.8217,-97.2040,0.0,3.1,136.0,4.4,'11111222,11111222,11111222' 
TCOON,ioos:station:TCOON:006:1,2008-10-07T07:00:00Z,27.8217,-97.2040,0.0,2.6,121.0,3.4,'11111222,11111222,11111222' 
TCOON,ioos:station:TCOON:006:1,2008-10-07T08:00:00Z,27.8217,-97.2040,0.0,3.0,108.0,5.0,'11111222,11111222,11111222' 
TCOON,ioos:station:TCOON:006:1,2008-10-07T09:00:00Z,27.8217,-97.2040,0.0,0.6,127.0,1.0,'11111222,11111222,11111222' 
TCOON,ioos:station:TCOON:006:1,2008-10-07T10:00:00Z,27.8217,-97.2040,0.0,1.0,334.0,1.1,'11111222,11111222,11111222' 
TCOON,ioos:station:TCOON:006:1,2008-10-07T11:00:00Z,27.8217,-97.2040,0.0,1.1,353.0,2.2,'11111222,11111222,11111222' 
TCOON,ioos:station:TCOON:006:1,2008-10-07T12:00:00Z,27.8217,-97.2040,0.0,1.0,85.0,1.7,'11111222,11111222,11111222' 
TCOON,ioos:station:TCOON:006:1,2008-10-07T13:00:00Z,27.8217,-97.2040,0.0,1.2,315.0,1.5,'11111222,11111222,11111222' 
TCOON,ioos:station:TCOON:006:1,2008-10-07T14:00:00Z,27.8217,-97.2040,0.0,2.1,306.0,2.9,'11111222,11111222,11111222' 
TCOON,ioos:station:TCOON:006:1,2008-10-07T15:00:00Z,27.8217,-97.2040,0.0,3.2,253.0,4.5,'11111222,11111222,11111222' 
TCOON,ioos:station:TCOON:006:1,2008-10-07T16:00:00Z,27.8217,-97.2040,0.0,5.3,318.0,8.5,'11111222,11111222,11111222' 
TCOON,ioos:station:TCOON:006:1,2008-10-07T17:00:00Z,27.8217,-97.2040,0.0,2.0,348.0,4.4,'11111222,11111222,11111222' 
TCOON,ioos:station:TCOON:006:1,2008-10-07T18:00:00Z,27.8217,-97.2040,0.0,2.8,349.0,5.0,'11111222,11111222,11111222' 
TCOON,ioos:station:TCOON:006:1,2008-10-07T19:00:00Z,27.8217,-97.2040,0.0,6.0,316.0,10.3,'11111222,11111222,11111222' 
TCOON,ioos:station:TCOON:006:1,2008-10-07T20:00:00Z,27.8217,-97.2040,0.0,2.9,55.0,4.0,'11111222,11111222,11111222' 
TCOON,ioos:station:TCOON:006:1,2008-10-07T21:00:00Z,27.8217,-97.2040,0.0,3.8,79.0,4.9,'11111222,11111222,11111222' 
TCOON,ioos:station:TCOON:006:1,2008-10-07T22:00:00Z,27.8217,-97.2040,0.0,4.0,85.0,6.8,'11111222,11111222,11111222' 
TCOON,ioos:station:TCOON:006:1,2008-10-07T23:00:00Z,27.8217,-97.2040,0.0,2.3,72.0,4.2,'11111222,11111222,11111222' 
TCOON,ioos:station:TCOON:006:1,2008-10-08T00:00:00Z,27.8217,-97.2040,0.0,2.0,61.0,2.9,'11111222,11111222,11111222' 
TCOON,ioos:station:TCOON:006:1,2008-10-08T01:00:00Z,27.8217,-97.2040,0.0,0.7,351.0,1.0,'11111222,11111222,11111222' 
TCOON,ioos:station:TCOON:006:1,2008-10-08T02:00:00Z,27.8217,-97.2040,0.0,1.4,348.0,2.3,'11111222,11111222,11111222' 
TCOON,ioos:station:TCOON:006:1,2008-10-08T03:00:00Z,27.8217,-97.2040,0.0,0.6,357.0,2.5,'11111222,11111222,11111222' 
TCOON,ioos:station:TCOON:006:1,2008-10-08T04:00:00Z,27.8217,-97.2040,0.0,1.4,16.0,3.8,'11111222,11111222,11111222' 
TCOON,ioos:station:TCOON:006:1,2008-10-08T05:00:00Z,27.8217,-97.2040,0.0,1.0,22.0,3.2,'11111222,11111222,11111222' 
TCOON,ioos:station:TCOON:006:1,2008-10-08T06:00:00Z,27.8217,-97.2040,0.0,3.9,30.0,6.0,'11111222,11111222,11111222' 
TCOON,ioos:station:TCOON:006:1,2008-10-08T07:00:00Z,27.8217,-97.2040,0.0,1.4,12.0,3.8,'11111222,11111222,11111222' 
TCOON,ioos:station:TCOON:006:1,2008-10-08T08:00:00Z,27.8217,-97.2040,0.0,1.4,359.0,3.3,'11111222,11111222,11111222' 
TCOON,ioos:station:TCOON:006:1,2008-10-08T09:00:00Z,27.8217,-97.2040,0.0,1.5,338.0,2.5,'11111222,11111222,11111222' 
TCOON,ioos:station:TCOON:006:1,2008-10-08T10:00:00Z,27.8217,-97.2040,0.0,2.7,334.0,3.5,'11111222,11111222,11111222' 
TCOON,ioos:station:TCOON:006:1,2008-10-08T11:00:00Z,27.8217,-97.2040,0.0,2.1,334.0,3.3,'11111222,11111222,11111222' 
TCOON,ioos:station:TCOON:006:1,2008-10-08T12:00:00Z,27.8217,-97.2040,0.0,2.6,325.0,3.5,'11111222,11111222,11111222' 
TCOON,ioos:station:TCOON:006:1,2008-10-08T13:00:00Z,27.8217,-97.2040,0.0,2.3,345.0,3.2,'11111222,11111222,11111222' 
TCOON,ioos:station:TCOON:006:1,2008-10-08T14:00:00Z,27.8217,-97.2040,0.0,1.5,347.0,2.5,'11111222,11111222,11111222' 
TCOON,ioos:station:TCOON:006:1,2008-10-08T15:00:00Z,27.8217,-97.2040,0.0,0.4,35.0,3.1,'11111222,11111222,11111222' 
TCOON,ioos:station:TCOON:006:1,2008-10-08T16:00:00Z,27.8217,-97.2040,0.0,1.4,28.0,3.9,'11111222,11111222,11111222' 
TCOON,ioos:station:TCOON:006:1,2008-10-08T17:00:00Z,27.8217,-97.2040,0.0,2.0,133.0,3.3,'11111222,11111222,11111222' 
TCOON,ioos:station:TCOON:006:1,2008-10-08T18:00:00Z,27.8217,-97.2040,0.0,1.3,156.0,2.8,'11111222,11111222,11111222' 
TCOON,ioos:station:TCOON:006:1,2008-10-08T19:00:00Z,27.8217,-97.2040,0.0,3.1,157.0,3.7,'11111222,11111222,11111222' 
TCOON,ioos:station:TCOON:006:1,2008-10-08T20:00:00Z,27.8217,-97.2040,0.0,2.9,134.0,4.1,'11111222,11111222,11111222' 
TCOON,ioos:station:TCOON:006:1,2008-10-08T21:00:00Z,27.8217,-97.2040,0.0,2.6,129.0,4.3,'11111222,11111222,11111222' 
TCOON,ioos:station:TCOON:006:1,2008-10-08T22:00:00Z,27.8217,-97.2040,0.0,3.6,142.0,4.8,'11111222,11111222,11111222' 
TCOON,ioos:station:TCOON:006:1,2008-10-08T23:00:00Z,27.8217,-97.2040,0.0,3.2,145.0,3.9,'11111222,11111222,11111222' 
TCOON,ioos:station:TCOON:006:1,2008-10-09T00:00:00Z,27.8217,-97.2040,0.0,2.2,135.0,3.0,'11111222,11111222,11111222' 
TCOON,ioos:station:TCOON:006:1,2008-10-09T01:00:00Z,27.8217,-97.2040,0.0,2.5,143.0,4.0,'11111222,11111222,11111222' 
TCOON,ioos:station:TCOON:006:1,2008-10-09T02:00:00Z,27.8217,-97.2040,0.0,3.1,145.0,4.2,'11111222,11111222,11111222' 
TCOON,ioos:station:TCOON:006:1,2008-10-09T03:00:00Z,27.8217,-97.2040,0.0,1.8,178.0,2.1,'11111222,11111222,11111222' 
TCOON,ioos:station:TCOON:006:1,2008-10-09T04:00:00Z,27.8217,-97.2040,0.0,2.2,228.0,2.4,'11111222,11111222,11111222' 
TCOON,ioos:station:TCOON:006:1,2008-10-09T05:00:00Z,27.8217,-97.2040,0.0,2.0,208.0,2.4,'11111222,11111222,11111222' 
TCOON,ioos:station:TCOON:006:1,2008-10-09T06:00:00Z,27.8217,-97.2040,0.0,1.6,261.0,1.8,'11111222,11111222,11111222' 
TCOON,ioos:station:TCOON:006:1,2008-10-09T07:00:00Z,27.8217,-97.2040,0.0,1.3,303.0,1.7,'11111222,11111222,11111222' 
TCOON,ioos:station:TCOON:006:1,2008-10-09T08:00:00Z,27.8217,-97.2040,0.0,2.6,337.0,3.2,'11111222,11111222,11111222' 
TCOON,ioos:station:TCOON:006:1,2008-10-09T09:00:00Z,27.8217,-97.2040,0.0,2.6,343.0,3.2,'11111222,11111222,11111222' 
TCOON,ioos:station:TCOON:006:1,2008-10-09T10:00:00Z,27.8217,-97.2040,0.0,1.9,356.0,3.6,'11111222,11111222,11111222' 
TCOON,ioos:station:TCOON:006:1,2008-10-09T11:00:00Z,27.8217,-97.2040,0.0,3.4,343.0,4.6,'11111222,11111222,11111222' 
TCOON,ioos:station:TCOON:006:1,2008-10-09T12:00:00Z,27.8217,-97.2040,0.0,3.3,342.0,3.9,'11111222,11111222,11111222' 